Meteo pe oră la Dzielce

Astăzi, 26 Februarie, Vineri

Timp Temperatura Precipitaţii Vânt Presiune Umiditate
00:00 +4°C° 0 mm 4 m/s 750 mmHg 89%
01:00 +4°C° 0 mm 4 m/s 750 mmHg 90%
02:00 +4°C° 0 mm 4 m/s 750 mmHg 92%
03:00 +4°C° 0 mm 4 m/s 750 mmHg 92%
04:00 +4°C° 0 mm 4 m/s 749 mmHg 92%
05:00 +3°C° 0 mm 3 m/s 749 mmHg 93%
06:00 +3°C° 0 mm 3 m/s 749 mmHg 93%
07:00 +3°C° 0 mm 3 m/s 749 mmHg 93%
08:00 +3°C° 0 mm 3 m/s 749 mmHg 93%
09:00 +5°C° 0 mm 3 m/s 749 mmHg 90%
10:00 +7°C° 0 mm 3 m/s 749 mmHg 88%
11:00 +8°C° 0 mm 4 m/s 749 mmHg 85%
12:00 +10°C° 0 mm 3 m/s 749 mmHg 83%
13:00 +11°C° 0 mm 3 m/s 748 mmHg 81%
14:00 +12°C° 0 mm 3 m/s 748 mmHg 79%
15:00 +11°C° 0 mm 3 m/s 747 mmHg 81%
16:00 +12°C° 0 mm 2 m/s 747 mmHg 84%
17:00 +12°C° 0 mm 2 m/s 747 mmHg 87%
18:00 +9°C° 0.2 mm 3 m/s 747 mmHg 89%
19:00 +8°C° 0.2 mm 3 m/s 747 mmHg 91%
20:00 +6°C° 0.2 mm 4 m/s 747 mmHg 93%
21:00 +5°C° 0 mm 4 m/s 747 mmHg 91%
22:00 +5°C° 0 mm 5 m/s 747 mmHg 88%
23:00 +3°C° 0 mm 5 m/s 747 mmHg 86%

Mâine, 27 Februarie, Sâmbătă

Timp Temperatura Precipitaţii Vânt Presiune Umiditate
00:00 +3°C° 0 mm 5 m/s 748 mmHg 86%
01:00 +2°C° 0 mm 5 m/s 748 mmHg 86%
02:00 +2°C° 0 mm 5 m/s 749 mmHg 86%
03:00 +2°C° 0 mm 5 m/s 748 mmHg 84%
04:00 +2°C° 0 mm 5 m/s 748 mmHg 83%
05:00 +2°C° 0 mm 6 m/s 748 mmHg 82%
06:00 +2°C° 0 mm 6 m/s 748 mmHg 82%
07:00 +1°C° 0 mm 6 m/s 748 mmHg 83%
08:00 +1°C° 0 mm 6 m/s 748 mmHg 84%
09:00 +1°C° 0 mm 6 m/s 749 mmHg 84%
10:00 +2°C° 0 mm 6 m/s 749 mmHg 84%
11:00 +2°C° 0 mm 7 m/s 749 mmHg 84%
12:00 +2°C° 0 mm 6 m/s 749 mmHg 83%
13:00 +2°C° 0 mm 6 m/s 750 mmHg 82%
14:00 +2°C° 0 mm 6 m/s 750 mmHg 82%
15:00 +2°C° 0 mm 6 m/s 750 mmHg 80%
16:00 +2°C° 0 mm 6 m/s 750 mmHg 79%
17:00 +2°C° 0 mm 6 m/s 750 mmHg 78%
18:00 +2°C° 0 mm 6 m/s 751 mmHg 77%
19:00 +2°C° 0 mm 5 m/s 751 mmHg 76%
20:00 +2°C° 0 mm 5 m/s 751 mmHg 76%
21:00 +1°C° 0 mm 5 m/s 752 mmHg 78%
22:00 0°C° 0 mm 4 m/s 752 mmHg 81%
23:00 0°C° 0 mm 4 m/s 752 mmHg 84%

Poimâine, 28 Februarie, Duminică

Timp Temperatura Precipitaţii Vânt Presiune Umiditate
00:00 -1°C° 0 mm 4 m/s 752 mmHg 87%
01:00 -2°C° 0 mm 4 m/s 753 mmHg 90%
02:00 -2°C° 0 mm 4 m/s 753 mmHg 93%
03:00 -2°C° 0 mm 4 m/s 753 mmHg 92%
04:00 -2°C° 0 mm 4 m/s 753 mmHg 92%
05:00 -2°C° 0 mm 4 m/s 753 mmHg 92%
06:00 -2°C° 0 mm 4 m/s 753 mmHg 91%
07:00 -3°C° 0 mm 4 m/s 753 mmHg 91%
08:00 -3°C° 0 mm 4 m/s 754 mmHg 90%
09:00 -2°C° 0 mm 4 m/s 754 mmHg 85%
10:00 -1°C° 0 mm 4 m/s 754 mmHg 79%
11:00 0°C° 0 mm 4 m/s 754 mmHg 74%
12:00 +3°C° 0 mm 4 m/s 754 mmHg 69%
13:00 +3°C° 0 mm 5 m/s 754 mmHg 64%
14:00 +5°C° 0 mm 5 m/s 754 mmHg 60%
15:00 +5°C° 0 mm 5 m/s 753 mmHg 61%
16:00 +4°C° 0 mm 4 m/s 753 mmHg 63%
17:00 +4°C° 0 mm 4 m/s 752 mmHg 65%
18:00 +3°C° 0 mm 4 m/s 753 mmHg 69%
19:00 +3°C° 0 mm 4 m/s 753 mmHg 73%
20:00 +1°C° 0 mm 4 m/s 753 mmHg 78%
21:00 +1°C° 0 mm 4 m/s 753 mmHg 81%
22:00 0°C° 0 mm 4 m/s 753 mmHg 85%
23:00 0°C° 0 mm 5 m/s 752 mmHg 89%

1 Martie, Luni

Timp Temperatura Precipitaţii Vânt Presiune Umiditate
00:00 0°C° 0 mm 5 m/s 753 mmHg 90%
01:00 +1°C° 0 mm 5 m/s 753 mmHg 91%
02:00 +1°C° 0 mm 5 m/s 753 mmHg 93%
03:00 +1°C° 0 mm 5 m/s 753 mmHg 94%
04:00 0°C° 0 mm 4 m/s 753 mmHg 94%
05:00 0°C° 0 mm 4 m/s 753 mmHg 95%
06:00 0°C° 0 mm 4 m/s 753 mmHg 95%
07:00 +1°C° 0 mm 3 m/s 754 mmHg 94%
08:00 +1°C° 0 mm 3 m/s 754 mmHg 94%
09:00 +1°C° 0 mm 3 m/s 754 mmHg 91%
10:00 +2°C° 0 mm 3 m/s 755 mmHg 87%
11:00 +4°C° 0 mm 2 m/s 755 mmHg 84%
12:00 +4°C° 0 mm 2 m/s 755 mmHg 81%
13:00 +5°C° 0 mm 2 m/s 756 mmHg 77%
14:00 +5°C° 0 mm 2 m/s 756 mmHg 74%
15:00 +4°C° 0 mm 3 m/s 756 mmHg 75%
16:00 +4°C° 0 mm 3 m/s 755 mmHg 76%
17:00 +4°C° 0 mm 3 m/s 755 mmHg 78%
18:00 +4°C° 0 mm 3 m/s 755 mmHg 81%
19:00 +4°C° 0 mm 2 m/s 756 mmHg 85%
20:00 +3°C° 0 mm 2 m/s 756 mmHg 89%
21:00 +3°C° 0 mm 2 m/s 756 mmHg 90%
22:00 +2°C° 0 mm 2 m/s 756 mmHg 91%
23:00 +1°C° 0 mm 3 m/s 756 mmHg 93%

2 Martie, Marţi

Timp Temperatura Precipitaţii Vânt Presiune Umiditate
00:00 +1°C° 0 mm 3 m/s 756 mmHg 93%
01:00 0°C° 0 mm 3 m/s 756 mmHg 93%
02:00 0°C° 0 mm 3 m/s 756 mmHg 93%
03:00 0°C° 0 mm 3 m/s 755 mmHg 93%
04:00 0°C° 0 mm 3 m/s 755 mmHg 93%
05:00 0°C° 0 mm 3 m/s 755 mmHg 92%
06:00 0°C° 0 mm 3 m/s 755 mmHg 92%
07:00 0°C° 0 mm 3 m/s 754 mmHg 91%
08:00 0°C° 0 mm 3 m/s 754 mmHg 90%
09:00 +2°C° 0 mm 3 m/s 754 mmHg 83%
10:00 +4°C° 0 mm 4 m/s 754 mmHg 75%
11:00 +6°C° 0 mm 4 m/s 755 mmHg 67%
12:00 +7°C° 0 mm 4 m/s 754 mmHg 64%
13:00 +8°C° 0 mm 4 m/s 754 mmHg 61%
14:00 +10°C° 0 mm 4 m/s 754 mmHg 58%
15:00 +10°C° 0 mm 4 m/s 754 mmHg 59%
16:00 +10°C° 0 mm 4 m/s 753 mmHg 61%
17:00 +8°C° 0 mm 4 m/s 753 mmHg 63%
18:00 +8°C° 0 mm 3 m/s 753 mmHg 68%
19:00 +7°C° 0 mm 3 m/s 753 mmHg 74%
20:00 +4°C° 0 mm 3 m/s 753 mmHg 80%
21:00 +4°C° 0 mm 3 m/s 753 mmHg 81%
22:00 +4°C° 0 mm 2 m/s 753 mmHg 81%
23:00 +4°C° 0 mm 2 m/s 753 mmHg 82%

3 Martie, Miercuri

Timp Temperatura Precipitaţii Vânt Presiune Umiditate
00:00 +3°C° 0 mm 2 m/s 753 mmHg 82%
01:00 +3°C° 0 mm 2 m/s 753 mmHg 82%
02:00 +3°C° 0 mm 2 m/s 753 mmHg 81%
03:00 +2°C° 0 mm 2 m/s 753 mmHg 82%
04:00 +2°C° 0 mm 2 m/s 753 mmHg 82%
05:00 +2°C° 0 mm 2 m/s 752 mmHg 83%
06:00 +2°C° 0 mm 2 m/s 752 mmHg 83%
07:00 +2°C° 0 mm 2 m/s 752 mmHg 83%
08:00 +2°C° 0 mm 2 m/s 752 mmHg 84%
09:00 +2°C° 0 mm 3 m/s 752 mmHg 78%
10:00 +4°C° 0 mm 3 m/s 752 mmHg 71%
11:00 +6°C° 0 mm 4 m/s 752 mmHg 65%
12:00 +7°C° 0 mm 4 m/s 752 mmHg 62%
13:00 +8°C° 0 mm 4 m/s 752 mmHg 60%
14:00 +10°C° 0 mm 4 m/s 752 mmHg 57%
15:00 +10°C° 0 mm 3 m/s 751 mmHg 58%
16:00 +9°C° 0 mm 3 m/s 751 mmHg 60%
17:00 +9°C° 0 mm 3 m/s 751 mmHg 61%
18:00 +8°C° 0 mm 3 m/s 750 mmHg 67%
19:00 +7°C° 0 mm 2 m/s 750 mmHg 72%
20:00 +5°C° 0 mm 2 m/s 750 mmHg 77%
21:00 +5°C° 0 mm 2 m/s 750 mmHg 80%
22:00 +4°C° 0 mm 2 m/s 750 mmHg 84%
23:00 +4°C° 0 mm 2 m/s 750 mmHg 87%
Arată mai mult

Formular de consimțământ

Meteoprog și furnizorii noștri de servicii pot stoca și accesa date personale, precum cookies, identificatori de dispozitiv sau alte tehnologii similare pe dispozitivul dumneavoastră și procesa astfel de date pentru a personaliza conținutul și reclamele, dar și pentru a oferi caracteristici de social media și pentru a analiza traficul.

  • Stocarea și/sau accesarea informațiilor pe dispozitivul dumneavoastră

    Cookies, identificatori de dispozitiv sau alte informații pot fi stocate sau accesate pe dispozitiv în scopurile indicate mai sus.

  • Reclame și conținut personalizat, evaluarea reclamelor și a conținutului, informații despre audiențe și dezvoltarea produselor

    Reclamele și conținutul pot fi personalizate pe baza unui profil. Pot fi adăugate date suplimentare pentru a personaliza mai bine reclamele și conținutul. Performanța reclamelor și conținutului poate fi măsurată. Pot fi obținute informații despre utilizatorii care au văzut reclamele și conținutul. Aceste date pot fi utilizate pentru a dezvolta sau îmbunătăți experiența utilizatorilor, sistemele și software-ul.

Dând clic pe ‘Sunt de acord’, permiteți utilizarea cookie-urilor menționate, a identificatorilor de dispozitiv, balizelor web sau altor tehnologii similare. Setările pot fi modificate din browser-ul dispozitivului dumneavoastră.

În anumite scopuri, interesele legitime pot prima asupra consimțământului. Puteți citi mai multe informații în acest sens în Politica privind Confidențialitatea Datelor și Cookie.